Regional Weather Roundup
Issued by NWS Charleston, SC

Current Version | Previous Version | Graphics & Text | Print | Product List | Glossary On
Versions: 1 2 3 4 5 6 7 8 9 10 11 12 13 14 15 16 17 18 19 20 21 22 23 24 25 26 27 28 29 30 31 32 33 34 35 36 37 38 39 40 41 42 43 44 45 46 47 48 49 50
000
ASUS42 KCHS 220825
RWRCHS

REGIONAL WEATHER ROUNDUP
NATIONAL WEATHER SERVICE CHARLESTON SC
400 AM EDT TUE JUL 22 2014

NOTE: "FAIR" INDICATES FEW OR NO CLOUDS BELOW 12,000 FEET WITH NO
SIGNIFICANT WEATHER AND/OR OBSTRUCTIONS TO VISIBILITY.

NOT ALL STATIONS ARE QUALITY CONTROLLED BY THE NATIONAL
WEATHER SERVICE. USE DATA WITH CAUTION...ESPECIALLY
DEWPOINT OBSERVATIONS.

SCZ027-030-031-034>040-042>050-220900-
...SOUTH CAROLINA...

CITY           SKY/WX    TMP DP  RH WIND       PRES   REMARKS
N CHARLESTON   PTCLDY    75  73  94 N5        30.04S
WATERFRONT PRK   N/A     82 N/A N/A SE5         N/A
FORT JOHNSON   NOT AVBL
MOUNT PLEASANT FAIR      75  75 100 CALM      30.04S FOG
JOHNS ISLAND   MOSUNNY   75  70  83 CALM      30.04R
PINOPOLIS        N/A     75  73  94 NE9       29.96F
MONCKS CORNER    N/A     75  75 100 CALM      30.05S FOG
SUMMERVILLE    FOG       73  73 100 CALM      30.06R VSB 1
BEAUFORT MCAS  CLOUDY    75  73  93 NE5       30.03S FOG
BEAUFORT ARPT  FAIR      75  75 100 CALM      30.02S FOG
HILTON HEAD IS CLEAR     73  73 100 CALM      30.04R FOG
GEORGETOWN     NOT AVBL
WALTERBORO     NOT AVBL
ORANGEBURG     CLOUDY    74  71  91 NE6       30.06F
BARNWELL       CLOUDY    73  72  94 NE3       30.06F FOG
AIKEN          CLOUDY    72  72 100 NE6       30.10F
MANNING        CLOUDY    73 N/A N/A MISG      30.07S
KINGSTREE      NOT AVBL
COLUMBIA       CLOUDY    75  71  87 N5        30.07F
SUMTER         CLOUDY    73  73 100 NE6       30.06F FOG
FLORENCE       FOG       73  72  96 NE7       30.08F VSB 3/4
MYRTLE BEACH     N/A     73  72  94 N7        30.06S
N MYRTLE BEACH PTCLDY    73  71  93 NE6       30.06F

$$

GAZ063-065-086>088-099>101-113>116-118-119-134-136>141-150-220900-
...GEORGIA...

CITY           SKY/WX    TMP DP  RH WIND       PRES   REMARKS
SAVANNAH ARPT  PTCLDY    73  70  90 N3        30.03S
HUNTER AAF     PTCLDY    72  72 100 N2        30.00F
FORT STEWART   CLOUDY    73  72  94 CALM      30.02F
STATESBORO     NOT AVBL
SYLVANIA       CLOUDY    74  74 100 NE3       30.06S FOG
CLAXTON        CLOUDY   N/A N/A N/A CALM      30.04S
THOMSON        CLOUDY    74  74 100 CALM      30.12S
AUGUSTA-BUSH   LGT RAIN  73  71  93 N6        30.05F
AUGUSTA-DANIEL CLOUDY    73  71  93 N7        30.07F
SWAINSBORO     CLOUDY    73  73 100 NE3       30.06S
VIDALIA        RAIN      73  72  94 N3        30.05S
ALMA           MOCLDY    72  70  93 CALM      30.03S
WAYCROSS       MOCLDY    76  75  98 SW3       30.02S
JESUP          NOT AVBL
BRUNSWICK      MOCLDY    72  70  94 CALM      30.04R
SAINT SIMONS   MOCLDY    74  73  97 NW3       30.02R

$$

SCZ027-028-034-036>038-045-046-048>050-GAZ119-141-220900-
...LAKE AND SUPPLEMENTAL COASTAL OBSERVATIONS...

STATION/POSITION TIME  TEMP    WIND        PRES    WAVE   SWELL
                       AIR SEA DIR/SP/G            HT/PER HT/PER/DIR
                 (UTC) (F)     (DEG/KT/KT) (MB)    (FT/S) (FT/S/D)
UPR LAKE MARION  NOT AVBL
WINYAH BAY       0800   76     320/  3     1017.0S
LAKE MURRAY      0700   73      60/  2/  4 1018.6S
ACE BASIN NERRS  0800   75        CALM     1017.0S
FORT PULASKI     0800   75     320/  5/  6 1016.6S
SAPELO ISLAND    0800   75     320/  2     1017.0R

$$

ANZ835-935-AMZ111-154-330-350-352-354-374-450-454-472-220900-
...C-MAN AND BUOY OBSERVATIONS...

STATION/POSITION TIME  TEMP    WIND        PRES    WAVE   SWELL
                       AIR SEA DIR/SP/G            HT/PER HT/PER/DIR
                 (UTC) (F)     (DEG/KT/KT) (MB)    (FT/S) (FT/S/D)
FOLLY BEACH CMAN 0800   80     190/  8/  9 1017.4F
BUOY 41004       0800   82 82  170/ 10/ 10 1016.3F   2/ 7   2/ 7
BUOY 41008       0800   79 83  160/  6/  8 1016.3F   2/ 8   2/100/ 8
5E ST. MARYS GA  0800      83                N/A     2/ 8
FRYING PAN BUOY  NOT AVBL
BUOY 41025       0800          VRB  8/ 10  1019.4F   3/ 8   3/130/ 8
CAPE LOOKOUT NC  0800   78     260/  4/  4 1018.9F
BUOY 41002       0742   81 82  180/ 14/ 16 1020.0F   4/ 7   2/150/ 7
BUOY 41010       0800   82 83  150/ 12/ 16 1017.6S   3/ 8   2/110/ 8
BUOY 41012       NOT AVBL
ST AUGUSTINE FL  0800   78     140/  4/  5 1016.9F
CAPERS NEARSHORE 0700   81     160/  6/  6   N/A
FRIPP NEARSHORE  NOT AVBL


$$


USA.gov is the U.S. government's official web portal to all federal, state and local government web resources and services.